| time (UTC) | temp C | wind direction | speed KPH | gust KPH | rain 1hr cm | rain 24hr cm | rain mn cm | humidity % | barometer mb |
| 20260510221053 | 21 | 9 | 0.0 | 9.7 | 0.00 | 0.00 | 0.00 | 24 | 1002.8 |
| 20260510220553 | 21 | 9 | 0.0 | 9.7 | 0.00 | 0.00 | 0.00 | 24 | 1002.8 |
| 20260510220053 | 21 | 174 | 0.0 | 9.7 | 0.00 | 0.00 | 0.00 | 26 | 1002.8 |
| 20260510215553 | 20 | 171 | 0.0 | 9.7 | 0.00 | 0.00 | 0.00 | 26 | 1002.9 |
| 20260510215053 | 20 | 165 | 0.0 | 9.7 | 0.00 | 0.00 | 0.00 | 25 | 1002.9 |
| 20260510214553 | 20 | 157 | 1.6 | 9.7 | 0.00 | 0.00 | 0.00 | 26 | 1002.9 |
| 20260510214053 | 20 | 57 | 1.6 | 9.7 | 0.00 | 0.00 | 0.00 | 27 | 1002.9 |
| 20260510213553 | 20 | 40 | 1.6 | 9.7 | 0.00 | 0.00 | 0.00 | 27 | 1002.9 |
| 20260510213053 | 20 | 181 | 1.6 | 9.7 | 0.00 | 0.00 | 0.00 | 28 | 1003.0 |
| 20260510212552 | 19 | 153 | 0.0 | 9.7 | 0.00 | 0.00 | 0.00 | 29 | 1003.1 |
| 20260510212052 | 19 | 162 | 1.6 | 9.7 | 0.00 | 0.00 | 0.00 | 29 | 1003.2 |
| 20260510211553 | 18 | 183 | 1.6 | 9.7 | 0.00 | 0.00 | 0.00 | 30 | 1003.3 |
| 20260510211053 | 18 | 185 | 0.0 | 9.7 | 0.00 | 0.00 | 0.00 | 29 | 1003.4 |
| 20260510210553 | 18 | 173 | 0.0 | 9.7 | 0.00 | 0.00 | 0.00 | 32 | 1003.4 |
| 20260510210053 | 18 | 172 | 0.0 | 9.7 | 0.00 | 0.00 | 0.00 | 31 | 1003.5 |
| 20260510205552 | 18 | 166 | 0.0 | 9.7 | 0.00 | 0.00 | 0.00 | 32 | 1003.6 |
| 20260510205053 | 18 | 167 | 0.0 | 9.7 | 0.00 | 0.00 | 0.00 | 32 | 1003.6 |
| 20260510204553 | 18 | 165 | 0.0 | 9.7 | 0.00 | 0.00 | 0.00 | 31 | 1003.7 |
| 20260510204051 | 18 | 163 | 0.0 | 9.7 | 0.00 | 0.00 | 0.00 | 31 | 1003.8 |
| 20260510203553 | 18 | 165 | 0.0 | 9.7 | 0.00 | 0.00 | 0.00 | 30 | 1003.9 |
| 20260510203053 | 18 | 187 | 1.6 | 9.7 | 0.00 | 0.00 | 0.00 | 29 | 1004.0 |
| 20260510202553 | 18 | 177 | 0.0 | 9.7 | 0.00 | 0.00 | 0.00 | 29 | 1004.1 |
| 20260510202052 | 18 | 179 | 0.0 | 9.7 | 0.00 | 0.00 | 0.00 | 29 | 1004.2 |
| 20260510201552 | 18 | 142 | 1.6 | 9.7 | 0.00 | 0.00 | 0.00 | 28 | 1004.3 |
| 20260510201052 | 18 | 167 | 3.2 | 9.7 | 0.00 | 0.00 | 0.00 | 28 | 1004.3 |
| 20260510200553 | 18 | 169 | 0.0 | 9.7 | 0.00 | 0.00 | 0.00 | 31 | 1004.4 |
| 20260510200052 | 18 | 169 | 0.0 | 9.7 | 0.00 | 0.00 | 0.00 | 30 | 1004.4 |
| 20260510195552 | 18 | 169 | 0.0 | 9.7 | 0.00 | 0.00 | 0.00 | 30 | 1004.5 |
| 20260510195053 | 18 | 171 | 0.0 | 9.7 | 0.00 | 0.00 | 0.00 | 32 | 1004.5 |
| 20260510194551 | 18 | 159 | 0.0 | 9.7 | 0.00 | 0.00 | 0.00 | 30 | 1004.5 |
| 20260510194052 | 18 | 165 | 1.6 | 6.4 | 0.00 | 0.00 | 0.00 | 32 | 1004.7 |
| 20260510193551 | 18 | 166 | 0.0 | 6.4 | 0.00 | 0.00 | 0.00 | 34 | 1004.9 |
| 20260510193053 | 17 | 166 | 0.0 | 6.4 | 0.00 | 0.00 | 0.00 | 35 | 1005.0 |
| 20260510192552 | 17 | 161 | 0.0 | 6.4 | 0.00 | 0.00 | 0.00 | 35 | 1005.0 |
| 20260510192052 | 17 | 161 | 0.0 | 3.2 | 0.00 | 0.00 | 0.00 | 37 | 1005.0 |
| 20260510191553 | 17 | 161 | 0.0 | 3.2 | 0.00 | 0.00 | 0.00 | 36 | 1005.2 |
| 20260510191053 | 17 | 160 | 0.0 | 3.2 | 0.00 | 0.00 | 0.00 | 36 | 1005.2 |
| 20260510190553 | 17 | 159 | 0.0 | 3.2 | 0.00 | 0.00 | 0.00 | 36 | 1005.3 |
| 20260510190053 | 17 | 160 | 0.0 | 3.2 | 0.00 | 0.00 | 0.00 | 38 | 1005.4 |
| 20260510185551 | 17 | 156 | 0.0 | 3.2 | 0.00 | 0.00 | 0.00 | 38 | 1005.5 |
| 20260510185051 | 17 | 156 | 0.0 | 3.2 | 0.00 | 0.00 | 0.00 | 37 | 1005.6 |
| 20260510184552 | 17 | 153 | 0.0 | 3.2 | 0.00 | 0.00 | 0.00 | 36 | 1005.6 |
| 20260510184052 | 17 | 153 | 0.0 | 3.2 | 0.00 | 0.00 | 0.00 | 35 | 1005.7 |
| 20260510183552 | 17 | 158 | 0.0 | 3.2 | 0.00 | 0.00 | 0.00 | 38 | 1005.7 |
| 20260510183053 | 17 | 158 | 0.0 | 3.2 | 0.00 | 0.00 | 0.00 | 36 | 1005.7 |
| 20260510182551 | 17 | 158 | 0.0 | 3.2 | 0.00 | 0.00 | 0.00 | 38 | 1005.7 |
| 20260510182051 | 17 | 158 | 0.0 | 3.2 | 0.00 | 0.00 | 0.00 | 37 | 1005.8 |
| 20260510181552 | 17 | 136 | 0.0 | 3.2 | 0.00 | 0.00 | 0.00 | 35 | 1005.8 |
| 20260510181052 | 17 | 136 | 0.0 | 1.6 | 0.00 | 0.00 | 0.00 | 34 | 1005.9 |
| 20260510180552 | 17 | 136 | 0.0 | 1.6 | 0.00 | 0.00 | 0.00 | 36 | 1006.0 |
| 20260510180053 | 16 | 136 | 0.0 | 1.6 | 0.00 | 0.00 | 0.00 | 37 | 1006.1 |
| 20260510175553 | 16 | 136 | 0.0 | 1.6 | 0.00 | 0.00 | 0.00 | 37 | 1006.1 |
| 20260510175051 | 16 | 136 | 0.0 | 1.6 | 0.00 | 0.00 | 0.00 | 38 | 1006.1 |
| 20260510174551 | 16 | 136 | 0.0 | 1.6 | 0.00 | 0.00 | 0.00 | 39 | 1006.2 |
| 20260510174055 | 16 | 136 | 0.0 | 1.6 | 0.00 | 0.00 | 0.00 | 39 | 1006.2 |
| 20260510173556 | 16 | 136 | 0.0 | 1.6 | 0.00 | 0.00 | 0.00 | 42 | 1006.3 |
| 20260510173056 | 16 | 136 | 0.0 | 1.6 | 0.00 | 0.00 | 0.00 | 42 | 1006.3 |
| 20260510172556 | 16 | 136 | 0.0 | 1.6 | 0.00 | 0.00 | 0.00 | 41 | 1006.3 |
| 20260510172057 | 16 | 136 | 0.0 | 1.6 | 0.00 | 0.00 | 0.00 | 44 | 1006.4 |
| 20260510171557 | 16 | 136 | 0.0 | 1.6 | 0.00 | 0.00 | 0.00 | 42 | 1006.3 |
| 20260510171055 | 16 | 136 | 0.0 | 1.6 | 0.00 | 0.00 | 0.00 | 41 | 1006.4 |
| 20260510170556 | 16 | 136 | 0.0 | 1.6 | 0.00 | 0.00 | 0.00 | 43 | 1006.5 |
| 20260510170056 | 16 | 136 | 0.0 | 1.6 | 0.00 | 0.00 | 0.00 | 41 | 1006.5 |
| 20260510165556 | 16 | 136 | 0.0 | 1.6 | 0.00 | 0.00 | 0.00 | 40 | 1006.6 |
| 20260510165057 | 16 | 136 | 0.0 | 1.6 | 0.00 | 0.00 | 0.00 | 41 | 1006.6 |
| 20260510164555 | 16 | 136 | 0.0 | 1.6 | 0.00 | 0.00 | 0.00 | 41 | 1006.6 |
| 20260510164056 | 16 | 136 | 0.0 | 1.6 | 0.00 | 0.00 | 0.00 | 41 | 1006.7 |
| 20260510163556 | 16 | 136 | 0.0 | 1.6 | 0.00 | 0.00 | 0.00 | 40 | 1006.6 |
| 20260510163057 | 16 | 136 | 0.0 | 1.6 | 0.00 | 0.00 | 0.00 | 40 | 1006.7 |
| 20260510162555 | 16 | 136 | 0.0 | 1.6 | 0.00 | 0.00 | 0.00 | 40 | 1006.7 |
| 20260510162056 | 16 | 136 | 0.0 | 1.6 | 0.00 | 0.00 | 0.00 | 39 | 1006.8 |
| 20260510161556 | 16 | 136 | 0.0 | 1.6 | 0.00 | 0.00 | 0.00 | 39 | 1006.7 |
| 20260510161056 | 16 | 136 | 0.0 | 1.6 | 0.00 | 0.00 | 0.00 | 38 | 1006.8 |
| 20260510160556 | 16 | 136 | 0.0 | 1.6 | 0.00 | 0.00 | 0.00 | 38 | 1006.9 |
| 20260510160055 | 16 | 136 | 0.0 | 1.6 | 0.00 | 0.00 | 0.00 | 37 | 1006.8 |
| 20260510155555 | 16 | 136 | 0.0 | 1.6 | 0.00 | 0.00 | 0.00 | 38 | 1006.8 |
| 20260510155056 | 16 | 136 | 0.0 | 1.6 | 0.00 | 0.00 | 0.00 | 38 | 1006.8 |
| 20260510154556 | 16 | 136 | 0.0 | 1.6 | 0.00 | 0.00 | 0.00 | 38 | 1006.9 |
| 20260510154056 | 15 | 136 | 0.0 | 1.6 | 0.00 | 0.00 | 0.00 | 39 | 1006.9 |
| 20260510153557 | 15 | 136 | 0.0 | 1.6 | 0.00 | 0.00 | 0.00 | 39 | 1007.0 |
| 20260510153055 | 15 | 136 | 0.0 | 1.6 | 0.00 | 0.00 | 0.00 | 39 | 1007.0 |
| 20260510152555 | 15 | 136 | 0.0 | 0.0 | 0.00 | 0.00 | 0.00 | 41 | 1007.0 |
| 20260510152055 | 15 | 136 | 0.0 | 0.0 | 0.00 | 0.00 | 0.00 | 41 | 1007.1 |
| 20260510151555 | 15 | 136 | 0.0 | 0.0 | 0.00 | 0.00 | 0.00 | 41 | 1007.0 |
| 20260510151055 | 14 | 136 | 0.0 | 0.0 | 0.00 | 0.00 | 0.00 | 45 | 1007.0 |
| 20260510150555 | 14 | 136 | 0.0 | 0.0 | 0.00 | 0.00 | 0.00 | 51 | 1007.0 |
| 20260510150055 | 14 | 136 | 0.0 | 0.0 | 0.00 | 0.00 | 0.00 | 47 | 1007.0 |
| 20260510145556 | 14 | 136 | 0.0 | 0.0 | 0.00 | 0.00 | 0.00 | 42 | 1007.1 |
| 20260510145056 | 13 | 136 | 0.0 | 0.0 | 0.00 | 0.00 | 0.00 | 42 | 1007.1 |
| 20260510144556 | 13 | 136 | 0.0 | 0.0 | 0.00 | 0.00 | 0.00 | 42 | 1007.1 |
| 20260510144056 | 13 | 136 | 0.0 | 0.0 | 0.00 | 0.00 | 0.00 | 43 | 1007.2 |
| 20260510143555 | 13 | 136 | 0.0 | 0.0 | 0.00 | 0.00 | 0.00 | 43 | 1007.2 |
| 20260510143055 | 12 | 136 | 0.0 | 0.0 | 0.00 | 0.00 | 0.00 | 44 | 1007.2 |
| 20260510142555 | 12 | 136 | 0.0 | 0.0 | 0.00 | 0.00 | 0.00 | 47 | 1007.3 |
| 20260510142056 | 12 | 136 | 0.0 | 0.0 | 0.00 | 0.00 | 0.00 | 48 | 1007.3 |
| 20260510141556 | 12 | 136 | 0.0 | 0.0 | 0.00 | 0.00 | 0.00 | 46 | 1007.2 |
| 20260510141055 | 12 | 136 | 0.0 | 0.0 | 0.00 | 0.00 | 0.00 | 46 | 1007.3 |
| 20260510140555 | 12 | 136 | 0.0 | 0.0 | 0.00 | 0.00 | 0.00 | 47 | 1007.3 |
| 20260510140055 | 12 | 136 | 0.0 | 0.0 | 0.00 | 0.00 | 0.00 | 45 | 1007.3 |
| 20260510135556 | 12 | 136 | 0.0 | 0.0 | 0.00 | 0.00 | 0.00 | 44 | 1007.4 |
| 20260510135056 | 12 | 136 | 0.0 | 0.0 | 0.00 | 0.00 | 0.00 | 43 | 1007.4 |
| 20260510134556 | 12 | 136 | 0.0 | 0.0 | 0.00 | 0.00 | 0.00 | 43 | 1007.4 |
| 20260510134055 | 11 | 136 | 0.0 | 0.0 | 0.00 | 0.00 | 0.00 | 43 | 1007.4 |
| 20260510133555 | 11 | 136 | 0.0 | 0.0 | 0.00 | 0.00 | 0.00 | 45 | 1007.3 |
| 20260510133056 | 11 | 136 | 0.0 | 0.0 | 0.00 | 0.00 | 0.00 | 44 | 1007.4 |
| 20260510132556 | 11 | 136 | 0.0 | 0.0 | 0.00 | 0.00 | 0.00 | 45 | 1007.5 |
| 20260510132055 | 11 | 136 | 0.0 | 0.0 | 0.00 | 0.00 | 0.00 | 45 | 1007.5 |
| 20260510131555 | 11 | 136 | 0.0 | 0.0 | 0.00 | 0.00 | 0.00 | 46 | 1007.5 |
| 20260510131055 | 11 | 136 | 0.0 | 0.0 | 0.00 | 0.00 | 0.00 | 47 | 1007.5 |
| 20260510130556 | 11 | 136 | 0.0 | 0.0 | 0.00 | 0.00 | 0.00 | 47 | 1007.6 |
| 20260510130056 | 10 | 136 | 0.0 | 0.0 | 0.00 | 0.00 | 0.00 | 48 | 1007.6 |
| 20260510125556 | 10 | 136 | 0.0 | 0.0 | 0.00 | 0.00 | 0.00 | 48 | 1007.5 |
| 20260510125055 | 10 | 136 | 0.0 | 0.0 | 0.00 | 0.00 | 0.00 | 47 | 1007.5 |
| 20260510124555 | 10 | 136 | 0.0 | 0.0 | 0.00 | 0.00 | 0.00 | 49 | 1007.5 |
| 20260510124054 | 10 | 136 | 0.0 | 0.0 | 0.00 | 0.00 | 0.00 | 49 | 1007.6 |
| 20260510123555 | 10 | 136 | 0.0 | 0.0 | 0.00 | 0.00 | 0.00 | 49 | 1007.6 |
| 20260510123055 | 10 | 136 | 0.0 | 0.0 | 0.00 | 0.00 | 0.00 | 49 | 1007.6 |
| 20260510122556 | 10 | 136 | 0.0 | 0.0 | 0.00 | 0.00 | 0.00 | 50 | 1007.6 |
| 20260510122054 | 10 | 136 | 0.0 | 0.0 | 0.00 | 0.00 | 0.00 | 51 | 1007.5 |
| 20260510121555 | 10 | 136 | 0.0 | 0.0 | 0.00 | 0.00 | 0.00 | 51 | 1007.5 |
| 20260510121056 | 10 | 136 | 0.0 | 0.0 | 0.00 | 0.00 | 0.00 | 52 | 1007.5 |
| 20260510120554 | 9 | 136 | 0.0 | 0.0 | 0.00 | 0.00 | 0.00 | 53 | 1007.6 |
| 20260510120055 | 9 | 136 | 0.0 | 0.0 | 0.00 | 0.00 | 0.00 | 54 | 1007.7 |
| 20260510115555 | 9 | 136 | 0.0 | 0.0 | 0.00 | 0.00 | 0.00 | 54 | 1007.7 |
| 20260510115056 | 9 | 136 | 0.0 | 0.0 | 0.00 | 0.00 | 0.00 | 55 | 1007.7 |
| 20260510114554 | 9 | 136 | 0.0 | 0.0 | 0.00 | 0.00 | 0.00 | 55 | 1007.8 |
| 20260510114055 | 9 | 136 | 0.0 | 0.0 | 0.00 | 0.00 | 0.00 | 56 | 1007.9 |
| 20260510113555 | 9 | 136 | 0.0 | 0.0 | 0.00 | 0.00 | 0.00 | 58 | 1007.9 |
| 20260510113056 | 9 | 136 | 0.0 | 0.0 | 0.00 | 0.00 | 0.00 | 57 | 1007.8 |
| 20260510112556 | 9 | 136 | 0.0 | 0.0 | 0.00 | 0.00 | 0.00 | 57 | 1007.9 |
| 20260510112054 | 9 | 136 | 0.0 | 0.0 | 0.00 | 0.00 | 0.00 | 59 | 1007.9 |
| 20260510111554 | 8 | 136 | 0.0 | 0.0 | 0.00 | 0.00 | 0.00 | 59 | 1007.9 |
| 20260510111055 | 8 | 136 | 0.0 | 0.0 | 0.00 | 0.00 | 0.00 | 59 | 1008.1 |
| 20260510110555 | 8 | 136 | 0.0 | 0.0 | 0.00 | 0.00 | 0.00 | 60 | 1008.1 |
| 20260510110055 | 8 | 136 | 0.0 | 0.0 | 0.00 | 0.00 | 0.00 | 61 | 1008.2 |
| 20260510105556 | 8 | 136 | 0.0 | 0.0 | 0.00 | 0.00 | 0.00 | 62 | 1008.2 |
| 20260510105056 | 8 | 136 | 0.0 | 0.0 | 0.00 | 0.00 | 0.00 | 63 | 1008.3 |
| 20260510104556 | 8 | 136 | 0.0 | 0.0 | 0.00 | 0.00 | 0.00 | 63 | 1008.4 |
| 20260510104055 | 8 | 136 | 0.0 | 0.0 | 0.00 | 0.00 | 0.00 | 63 | 1008.2 |
| 20260510103555 | 8 | 136 | 0.0 | 0.0 | 0.00 | 0.00 | 0.00 | 63 | 1008.3 |
| 20260510103055 | 8 | 136 | 0.0 | 0.0 | 0.00 | 0.00 | 0.00 | 62 | 1008.2 |
| 20260510102555 | 9 | 136 | 0.0 | 0.0 | 0.00 | 0.00 | 0.00 | 62 | 1008.3 |
| 20260510102055 | 9 | 136 | 0.0 | 0.0 | 0.00 | 0.00 | 0.00 | 61 | 1008.3 |
| 20260510101555 | 9 | 136 | 0.0 | 0.0 | 0.00 | 0.00 | 0.00 | 62 | 1008.3 |
| 20260510101054 | 9 | 136 | 0.0 | 0.0 | 0.00 | 0.00 | 0.00 | 62 | 1008.3 |
| 20260510100555 | 8 | 136 | 0.0 | 0.0 | 0.00 | 0.00 | 0.00 | 63 | 1008.4 |
| 20260510100055 | 8 | 136 | 0.0 | 0.0 | 0.00 | 0.00 | 0.00 | 63 | 1008.5 |
| 20260510095554 | 8 | 136 | 0.0 | 0.0 | 0.00 | 0.00 | 0.00 | 64 | 1008.6 |
| 20260510095054 | 8 | 136 | 0.0 | 0.0 | 0.00 | 0.00 | 0.00 | 64 | 1008.5 |
| 20260510094554 | 8 | 136 | 0.0 | 0.0 | 0.00 | 0.00 | 0.00 | 65 | 1008.6 |
| 20260510094054 | 8 | 136 | 0.0 | 0.0 | 0.00 | 0.00 | 0.00 | 66 | 1008.6 |
| 20260510093554 | 8 | 136 | 0.0 | 0.0 | 0.00 | 0.00 | 0.00 | 67 | 1008.6 |
| 20260510093055 | 8 | 136 | 0.0 | 0.0 | 0.00 | 0.00 | 0.00 | 68 | 1008.6 |
| 20260510092555 | 8 | 136 | 0.0 | 0.0 | 0.00 | 0.00 | 0.00 | 68 | 1008.6 |
| 20260510092055 | 7 | 136 | 0.0 | 0.0 | 0.00 | 0.00 | 0.00 | 68 | 1008.6 |
| 20260510091555 | 7 | 136 | 0.0 | 0.0 | 0.00 | 0.00 | 0.00 | 69 | 1008.6 |
| 20260510091054 | 7 | 136 | 0.0 | 0.0 | 0.00 | 0.00 | 0.00 | 68 | 1008.7 |
| 20260510090556 | 7 | 136 | 0.0 | 0.0 | 0.00 | 0.00 | 0.00 | 68 | 1008.7 |
| 20260510090054 | 7 | 136 | 0.0 | 0.0 | 0.00 | 0.00 | 0.00 | 67 | 1008.7 |
| 20260510085554 | 8 | 136 | 0.0 | 0.0 | 0.00 | 0.00 | 0.00 | 67 | 1008.9 |
| 20260510085054 | 8 | 136 | 0.0 | 0.0 | 0.00 | 0.00 | 0.00 | 67 | 1008.8 |
| 20260510084555 | 8 | 136 | 0.0 | 0.0 | 0.00 | 0.00 | 0.00 | 67 | 1008.9 |
| 20260510084055 | 8 | 136 | 0.0 | 0.0 | 0.00 | 0.00 | 0.00 | 66 | 1008.8 |
| 20260510083554 | 8 | 136 | 0.0 | 0.0 | 0.00 | 0.00 | 0.00 | 66 | 1009.0 |
| 20260510083053 | 8 | 136 | 0.0 | 0.0 | 0.00 | 0.00 | 0.00 | 66 | 1008.9 |
| 20260510082554 | 8 | 136 | 0.0 | 0.0 | 0.00 | 0.00 | 0.00 | 66 | 1008.9 |
| 20260510082054 | 8 | 136 | 0.0 | 0.0 | 0.00 | 0.00 | 0.00 | 65 | 1008.9 |
| 20260510081554 | 8 | 136 | 0.0 | 0.0 | 0.00 | 0.00 | 0.00 | 65 | 1009.0 |
| 20260510081054 | 8 | 136 | 0.0 | 0.0 | 0.00 | 0.00 | 0.00 | 65 | 1008.9 |
| 20260510080554 | 8 | 136 | 0.0 | 0.0 | 0.00 | 0.00 | 0.00 | 65 | 1009.0 |
| 20260510080055 | 8 | 136 | 0.0 | 0.0 | 0.00 | 0.00 | 0.00 | 64 | 1009.0 |
| 20260510075553 | 9 | 136 | 0.0 | 0.0 | 0.00 | 0.00 | 0.00 | 64 | 1009.1 |
| 20260510075054 | 9 | 136 | 0.0 | 0.0 | 0.00 | 0.00 | 0.00 | 64 | 1009.1 |
| 20260510074553 | 9 | 136 | 0.0 | 0.0 | 0.00 | 0.00 | 0.00 | 63 | 1009.1 |
| 20260510074054 | 9 | 136 | 0.0 | 0.0 | 0.00 | 0.00 | 0.00 | 63 | 1009.2 |
| 20260510073554 | 10 | 136 | 0.0 | 0.0 | 0.00 | 0.00 | 0.00 | 62 | 1009.3 |
| 20260510073054 | 10 | 136 | 0.0 | 0.0 | 0.00 | 0.00 | 0.00 | 62 | 1009.3 |
| 20260510072554 | 10 | 136 | 0.0 | 0.0 | 0.00 | 0.00 | 0.00 | 61 | 1009.3 |
| 20260510072054 | 10 | 136 | 0.0 | 0.0 | 0.00 | 0.00 | 0.00 | 61 | 1009.3 |
| 20260510071554 | 10 | 136 | 0.0 | 0.0 | 0.00 | 0.00 | 0.00 | 61 | 1009.4 |
| 20260510071054 | 10 | 136 | 0.0 | 0.0 | 0.00 | 0.00 | 0.00 | 61 | 1009.4 |
| 20260510070554 | 10 | 136 | 0.0 | 0.0 | 0.00 | 0.00 | 0.00 | 60 | 1009.4 |
| 20260510070054 | 10 | 136 | 0.0 | 0.0 | 0.00 | 0.00 | 0.00 | 60 | 1009.5 |
| 20260510065554 | 10 | 136 | 0.0 | 0.0 | 0.00 | 0.00 | 0.00 | 59 | 1009.5 |
| 20260510065055 | 10 | 136 | 0.0 | 0.0 | 0.00 | 0.00 | 0.00 | 59 | 1009.4 |
| 20260510064555 | 10 | 136 | 0.0 | 0.0 | 0.00 | 0.00 | 0.00 | 59 | 1009.4 |
| 20260510064054 | 11 | 136 | 0.0 | 0.0 | 0.00 | 0.00 | 0.00 | 59 | 1009.5 |
| 20260510063555 | 11 | 136 | 0.0 | 0.0 | 0.00 | 0.00 | 0.00 | 58 | 1009.5 |
| 20260510063055 | 11 | 136 | 0.0 | 0.0 | 0.00 | 0.00 | 0.00 | 58 | 1009.5 |
| 20260510062555 | 11 | 136 | 0.0 | 0.0 | 0.00 | 0.00 | 0.00 | 57 | 1009.5 |
| 20260510062053 | 11 | 136 | 0.0 | 0.0 | 0.00 | 0.00 | 0.00 | 57 | 1009.5 |
| 20260510061553 | 11 | 136 | 0.0 | 0.0 | 0.00 | 0.00 | 0.00 | 57 | 1009.7 |
| 20260510061053 | 11 | 136 | 0.0 | 0.0 | 0.00 | 0.00 | 0.00 | 56 | 1009.6 |
| 20260510060553 | 11 | 136 | 0.0 | 0.0 | 0.00 | 0.00 | 0.00 | 56 | 1009.6 |
| 20260510060054 | 11 | 136 | 0.0 | 0.0 | 0.00 | 0.00 | 0.00 | 56 | 1009.6 |
| 20260510055554 | 11 | 136 | 0.0 | 9.7 | 0.00 | 0.00 | 0.00 | 57 | 1009.7 |
| 20260510055054 | 11 | 136 | 0.0 | 9.7 | 0.00 | 0.00 | 0.00 | 57 | 1009.8 |
| 20260510054554 | 11 | 136 | 0.0 | 9.7 | 0.00 | 0.00 | 0.00 | 56 | 1009.7 |
| 20260510054054 | 11 | 136 | 0.0 | 9.7 | 0.00 | 0.00 | 0.00 | 56 | 1009.9 |
| 20260510053553 | 11 | 136 | 0.0 | 9.7 | 0.00 | 0.00 | 0.00 | 56 | 1010.0 |
| 20260510053053 | 12 | 136 | 0.0 | 9.7 | 0.00 | 0.00 | 0.00 | 55 | 1010.0 |
| 20260510052553 | 12 | 136 | 0.0 | 9.7 | 0.00 | 0.00 | 0.00 | 55 | 1010.0 |
| 20260510052053 | 12 | 136 | 0.0 | 9.7 | 0.00 | 0.00 | 0.00 | 55 | 1010.0 |
| 20260510051553 | 12 | 136 | 0.0 | 9.7 | 0.00 | 0.00 | 0.00 | 55 | 1010.0 |
| 20260510051053 | 12 | 136 | 0.0 | 9.7 | 0.00 | 0.00 | 0.00 | 55 | 1010.0 |
| 20260510050555 | 12 | 136 | 0.0 | 9.7 | 0.00 | 0.00 | 0.00 | 55 | 1010.0 |
| 20260510050054 | 12 | 136 | 0.0 | 9.7 | 0.00 | 0.00 | 0.00 | 54 | 1010.0 |
| 20260510045553 | 12 | 136 | 0.0 | 9.7 | 0.00 | 0.00 | 0.00 | 54 | 1010.0 |
| 20260510045054 | 12 | 136 | 0.0 | 9.7 | 0.00 | 0.00 | 0.00 | 54 | 1010.0 |
| 20260510044554 | 12 | 136 | 0.0 | 9.7 | 0.00 | 0.00 | 0.00 | 54 | 1009.9 |
| 20260510044053 | 12 | 136 | 0.0 | 9.7 | 0.00 | 0.00 | 0.00 | 53 | 1009.8 |
| 20260510043554 | 12 | 136 | 0.0 | 9.7 | 0.00 | 0.00 | 0.00 | 53 | 1009.9 |
| 20260510043055 | 13 | 136 | 0.0 | 9.7 | 0.00 | 0.00 | 0.00 | 53 | 1009.9 |
| 20260510042553 | 13 | 136 | 0.0 | 9.7 | 0.00 | 0.00 | 0.00 | 52 | 1009.9 |
| 20260510042053 | 13 | 136 | 0.0 | 9.7 | 0.00 | 0.00 | 0.00 | 52 | 1009.8 |
| 20260510041554 | 13 | 136 | 0.0 | 9.7 | 0.00 | 0.00 | 0.00 | 51 | 1009.8 |
| 20260510041054 | 13 | 136 | 0.0 | 9.7 | 0.00 | 0.00 | 0.00 | 51 | 1009.8 |
| 20260510040553 | 13 | 136 | 0.0 | 9.7 | 0.00 | 0.00 | 0.00 | 51 | 1009.7 |
| 20260510040053 | 14 | 136 | 0.0 | 9.7 | 0.00 | 0.00 | 0.00 | 51 | 1009.7 |
| 20260510035553 | 14 | 136 | 0.0 | 9.7 | 0.00 | 0.00 | 0.00 | 50 | 1009.7 |
| 20260510035054 | 14 | 136 | 0.0 | 9.7 | 0.00 | 0.00 | 0.00 | 49 | 1009.6 |
| 20260510034554 | 15 | 136 | 0.0 | 9.7 | 0.00 | 0.00 | 0.00 | 49 | 1009.6 |
| 20260510034055 | 15 | 136 | 0.0 | 9.7 | 0.00 | 0.00 | 0.00 | 48 | 1009.6 |
| 20260510033553 | 15 | 136 | 0.0 | 9.7 | 0.00 | 0.00 | 0.00 | 47 | 1009.6 |
| 20260510033054 | 15 | 136 | 0.0 | 9.7 | 0.00 | 0.00 | 0.00 | 48 | 1009.5 |
| 20260510032555 | 15 | 136 | 0.0 | 9.7 | 0.00 | 0.00 | 0.00 | 47 | 1009.5 |
| 20260510032053 | 16 | 136 | 0.0 | 9.7 | 0.00 | 0.00 | 0.00 | 46 | 1009.5 |
| 20260510031553 | 16 | 136 | 0.0 | 9.7 | 0.00 | 0.00 | 0.00 | 45 | 1009.5 |
| 20260510031053 | 16 | 136 | 0.0 | 9.7 | 0.00 | 0.00 | 0.00 | 45 | 1009.5 |
| 20260510030554 | 16 | 136 | 0.0 | 9.7 | 0.00 | 0.00 | 0.00 | 44 | 1009.4 |
| 20260510030052 | 16 | 132 | 0.0 | 9.7 | 0.00 | 0.00 | 0.00 | 44 | 1009.3 |
| 20260510025553 | 16 | 131 | 0.0 | 9.7 | 0.00 | 0.00 | 0.00 | 44 | 1009.2 |
| 20260510025054 | 16 | 180 | 0.0 | 9.7 | 0.00 | 0.00 | 0.00 | 43 | 1009.2 |
| 20260510024554 | 16 | 178 | 0.0 | 9.7 | 0.00 | 0.00 | 0.00 | 43 | 1009.1 |
| 20260510024053 | 16 | 177 | 0.0 | 9.7 | 0.00 | 0.00 | 0.00 | 43 | 1009.1 |
| 20260510023553 | 16 | 179 | 0.0 | 9.7 | 0.00 | 0.00 | 0.00 | 43 | 1009.2 |
| 20260510023054 | 16 | 178 | 0.0 | 9.7 | 0.00 | 0.00 | 0.00 | 42 | 1009.2 |
| 20260510022554 | 17 | 180 | 0.0 | 9.7 | 0.00 | 0.00 | 0.00 | 43 | 1009.2 |
| 20260510022053 | 17 | 175 | 0.0 | 9.7 | 0.00 | 0.00 | 0.00 | 43 | 1009.3 |
| 20260510021553 | 17 | 176 | 1.6 | 9.7 | 0.00 | 0.00 | 0.00 | 42 | 1009.3 |
| 20260510021053 | 17 | 179 | 1.6 | 9.7 | 0.00 | 0.00 | 0.00 | 42 | 1009.3 |
| 20260510020554 | 17 | 175 | 0.0 | 9.7 | 0.00 | 0.00 | 0.00 | 44 | 1009.2 |
| 20260510020052 | 17 | 182 | 0.0 | 9.7 | 0.00 | 0.00 | 0.00 | 43 | 1009.2 |
| 20260510015553 | 17 | 182 | 0.0 | 9.7 | 0.00 | 0.00 | 0.00 | 42 | 1009.2 |
| 20260510015054 | 17 | 182 | 0.0 | 9.7 | 0.00 | 0.00 | 0.00 | 43 | 1009.3 |
| 20260510014554 | 17 | 182 | 0.0 | 9.7 | 0.00 | 0.00 | 0.00 | 41 | 1009.3 |
| 20260510014052 | 17 | 182 | 1.6 | 9.7 | 0.00 | 0.00 | 0.00 | 41 | 1009.2 |
| 20260510013553 | 17 | 183 | 0.0 | 9.7 | 0.00 | 0.00 | 0.00 | 41 | 1009.3 |
| 20260510013053 | 17 | 183 | 0.0 | 9.7 | 0.00 | 0.00 | 0.00 | 41 | 1009.3 |
| 20260510012554 | 17 | 183 | 0.0 | 9.7 | 0.00 | 0.00 | 0.00 | 41 | 1009.2 |
| 20260510012053 | 17 | 183 | 0.0 | 9.7 | 0.00 | 0.00 | 0.00 | 42 | 1009.3 |
| 20260510011553 | 17 | 183 | 0.0 | 9.7 | 0.00 | 0.00 | 0.00 | 41 | 1009.3 |
| 20260510011053 | 17 | 182 | 0.0 | 9.7 | 0.00 | 0.00 | 0.00 | 41 | 1009.3 |
| 20260510010553 | 17 | 182 | 0.0 | 9.7 | 0.00 | 0.00 | 0.00 | 40 | 1009.4 |
| 20260510010053 | 17 | 182 | 0.0 | 9.7 | 0.00 | 0.00 | 0.00 | 40 | 1009.4 |
| 20260510005552 | 17 | 182 | 0.0 | 9.7 | 0.00 | 0.00 | 0.00 | 40 | 1009.4 |
| 20260510005052 | 17 | 191 | 0.0 | 9.7 | 0.00 | 0.00 | 0.00 | 41 | 1009.5 |
| 20260510004554 | 17 | 191 | 1.6 | 9.7 | 0.00 | 0.00 | 0.00 | 40 | 1009.5 |
| 20260510004054 | 17 | 192 | 0.0 | 9.7 | 0.00 | 0.00 | 0.00 | 41 | 1009.5 |
| 20260510003554 | 17 | 192 | 0.0 | 9.7 | 0.00 | 0.00 | 0.00 | 40 | 1009.5 |
| 20260510003054 | 17 | 168 | 0.0 | 9.7 | 0.00 | 0.00 | 0.00 | 40 | 1009.6 |
| 20260510002553 | 18 | 168 | 0.0 | 9.7 | 0.00 | 0.00 | 0.00 | 40 | 1009.5 |
| 20260510002053 | 18 | 168 | 0.0 | 9.7 | 0.00 | 0.00 | 0.00 | 40 | 1009.5 |
| 20260510001553 | 18 | 168 | 0.0 | 9.7 | 0.00 | 0.00 | 0.00 | 39 | 1009.5 |
| 20260510001053 | 18 | 159 | 0.0 | 9.7 | 0.00 | 0.00 | 0.00 | 39 | 1009.5 |
| 20260510000553 | 18 | 146 | 0.0 | 9.7 | 0.00 | 0.00 | 0.00 | 41 | 1009.5 |
| 20260510000053 | 18 | 122 | 0.0 | 9.7 | 0.00 | 0.00 | 0.00 | 39 | 1009.5 |
| 20260509235552 | 18 | 127 | 0.0 | 9.7 | 0.00 | 0.00 | 0.00 | 40 | 1009.6 |
| 20260509235052 | 18 | 30 | 0.0 | 9.7 | 0.00 | 0.00 | 0.00 | 39 | 1009.5 |
| 20260509234552 | 18 | 30 | 0.0 | 9.7 | 0.00 | 0.00 | 0.00 | 40 | 1009.5 |
| 20260509234052 | 17 | 28 | 0.0 | 9.7 | 0.00 | 0.00 | 0.00 | 40 | 1009.5 |
| 20260509233554 | 17 | 28 | 1.6 | 9.7 | 0.00 | 0.00 | 0.00 | 40 | 1009.5 |
| 20260509233053 | 17 | 97 | 1.6 | 9.7 | 0.00 | 0.00 | 0.00 | 40 | 1009.5 |
| 20260509232553 | 17 | 86 | 0.0 | 9.7 | 0.00 | 0.00 | 0.00 | 41 | 1009.5 |
| 20260509232053 | 17 | 34 | 1.6 | 9.7 | 0.00 | 0.00 | 0.00 | 41 | 1009.5 |
| 20260509231553 | 17 | 41 | 0.0 | 9.7 | 0.00 | 0.00 | 0.00 | 41 | 1009.6 |
| 20260509231054 | 17 | 41 | 1.6 | 9.7 | 0.00 | 0.00 | 0.00 | 41 | 1009.7 |
| 20260509230552 | 17 | 43 | 1.6 | 9.7 | 0.00 | 0.00 | 0.00 | 41 | 1009.7 |
| 20260509230054 | 17 | 55 | 1.6 | 9.7 | 0.00 | 0.00 | 0.00 | 42 | 1009.7 |
| 20260509225552 | 17 | 104 | 0.0 | 9.7 | 0.00 | 0.00 | 0.00 | 42 | 1009.7 |
| 20260509225052 | 17 | 147 | 0.0 | 9.7 | 0.00 | 0.00 | 0.00 | 44 | 1009.8 |
| 20260509224554 | 16 | 146 | 0.0 | 9.7 | 0.00 | 0.00 | 0.00 | 44 | 1009.8 |
| 20260509224054 | 16 | 138 | 0.0 | 9.7 | 0.00 | 0.00 | 0.00 | 45 | 1009.9 |
| 20260509223553 | 17 | 35 | 0.0 | 9.7 | 0.00 | 0.00 | 0.00 | 41 | 1009.9 |
| 20260509223053 | 17 | 35 | 0.0 | 9.7 | 0.00 | 0.00 | 0.00 | 41 | 1009.9 |
| 20260509222553 | 17 | 40 | 0.0 | 9.7 | 0.00 | 0.00 | 0.00 | 41 | 1010.0 |
| 20260509222053 | 17 | 40 | 0.0 | 9.7 | 0.00 | 0.00 | 0.00 | 41 | 1010.0 |
| 20260509221553 | 17 | 43 | 0.0 | 9.7 | 0.00 | 0.00 | 0.00 | 41 | 1010.1 |